Starlink 1876

operational
NORAD ID: 47161 Int'l Des: 2020-088 Owner: SPXS Country: US Constellation: starlink
LEOCIRCULARSTARLINK_TYPE

Starlink 1876について

説明を読み込み中...

リアルタイム位置

3D地球を読み込み中...

次回通過

高度履歴

Altitude vs Time

uPlot chart will show altitude changes over time

軌道要素

1 47161U 20088AR 26035.50002314 .00096984 00000-0 16441-2 0 9992
2 47161 53.0524 72.3720 0005305 19.8504 48.5365 15.50741903 5844
Epoch: Feb 4, 2026 • Age: 12 hours

現在のステータス

高度 413.3 km
速度 7.67 km/s
衛星直下点 -7.26°S, 71.3°W
打ち上げ日 Nov 25, 2020
運用期間 5.1 years
タイプ internet

技術仕様

分類 Payload
質量 260.00 kg
乾燥質量 248.00 kg
総質量 260.00 kg
長さ 0.20 m
直径 2.80 m
スパン 9.00 m
形状 Box + pan
製造者 SPXS
バスタイプ Starlink
フェーズステータス In Orbit
所有者/国 SPXS/US

大規模コンステレーション

Loading constellations...